CZ-2C DEB, 40288

Orbit data source: Space-Track

CZ-2C DEB, 40288 is space debris in SSO originally from a launch on Mon, 27 Oct 2014 UTC launched from the Jiuquan Satellite Launch Center, China (JSC). Debris objects in space refer to the collection of defunct objects orbiting the Earth. Examples of debris include non-operational satellites, rocket bodies, and fragments generated from explosions, collisions, or faulty payload assembly.

Loading next visibility...
Identifier
40288, 2014-066C
Orbit
SSO
Last TLE update
14 hours ago
Origin
Manufacturer
CALT
Mission
Spacecraft
Bus & Motor
Unknown
Mass
1 kg wet, 1 kg dry
Launch date (UTC)
2014-10-27 (11 years ago)
Launch vehicle
Unknown
Launch site
Jiuquan Satellite Launch Center, China (JSC)
Object type
Payload
Rocket body
Debris
Shape & HBR
Cone, 0.2 m
Radar Cross Section
0.025 m², Small (<0.1 m²)

Expand to show TLE details & history

TLE from 14 hours ago
0 CZ-2C DEB
1 40288U 14066C   25181.84822094  .00002092  00000-0  71354-3 0  9999
2 40288  97.9356 326.5834 0164195 175.6408 184.6253 14.30038326553980
Epoch: 2025-06-30T20:21Z
TLE epoch observation values (Epoch: 2025-06-30T20:21:26.289Z)
Latitude
0.00006°
Longitude
102.07171°
Altitude
911.932 km
Speed
7.335 km/s
True Right ascension
21h 46m 20s
True Declination
0° 00' 00"
Sunlit
Object was in full shadow at epoch
Visualization orbit readout
Latitude
15.83127°
Longitude
-75.13537°
Altitude
677.817 km
Speed
7.58 km/s
Apparent Right ascension
10h 03m 31s
Apparent Declination
-10° 27' 41"
Sunlit
Object is in daylight
Visualization observer readout
Local Sidereal Time
22:11:51
Azimuth
4.164° NNE
Elevation
-60.487°
Doppler factor
1
Orbital elements
Apogee altitude
906.387 km
Perigee altitude
671.035 km
Semi-major axis
7,166.848 km
Eccentricity
0.01642
Inclination
97.9356°
RAAN
326.5834°
Arg. of periapsis
175.6408°
True anomaly
Unknown
Mean anomaly
184.6253°
Eccentric anomaly
Unknown
Mean motion
3.57726 °/min
Orbital period
100.64 mins
BSTAR
0.00071354
Loading maneuver chart data...
Loading SW <> Apogee altitude chart data...
Loading historical data...
Loading historical data...
Loading historical data...
Loading historical data...
Loading historical data...
Loading historical data...
Loading historical data...
Other satellites on launch #66 in the year 2014 (2014-10-27 UTC)

CZ-2C DEB Visibility forecast

Observer location: undefined°, undefined°

Span
Click to sort rows by Start time (UTC) header in descending order
Start Az.
Max El. time (UTC)
Max El. Az.
Max El.
End time (UTC)
End Az.
8 mins2025-07-01 22:08:23.456Z26.156° NE2025-07-01 22:12:23.456Z103.719° ESE37.258°2025-07-01 22:16:23.456Z173.511° S
9 mins2025-07-02 09:25:23.456Z155.139° SSE2025-07-02 09:29:23.456Z108.153° ESE42.489°2025-07-02 09:34:23.456Z353.805° N
|